Hourly Data Report for December 02, 2021

FISHER BRANCH (AUT)
MANITOBA
Current Station Operator: ECCC - MSC

51°05'00.100" N
97°33'16.200" W
253.00 m
50309J6
71442
WSZ

Download Data

Hourly Data (December 2021)
Hourly Data Report for December 2, 2021
TIME
LST
Temp Definition
°C
Dew Point Definition
°C
Rel Hum Definition
%
Precip. Amount Definition
mm

Wind Dir Definition
10's deg

Wind Spd Definition
km/h
Visibility Definition
km
Stn Press Definition
kPa
Hmdx Definition


Wind Chill Definition


Weather Definition


00:00 -5.3 -7.2 87 0.0 33 18   97.52   -12 LegendNANA
01:00 -6.0 -7.7 88 0.0 32 17   97.66   -12 LegendNANA
02:00 -7.1 -9.1 86 0.0 32 18   97.74   -14 LegendNANA
03:00 -7.5 -9.6 85 0.0 32 14   97.88   -13 LegendNANA
04:00 -8.0 -10.1 85 0.0 33 15   97.96   -14 LegendNANA
05:00 -8.5 -10.5 85 0.0 34 19   98.09   -16 LegendNANA
06:00 -8.9 -10.6 87 0.0 34 15   98.23   -15 LegendNANA
07:00 -9.1 -10.7 89 0.0 35 13   98.30   -15 LegendNANA
08:00 -9.8 -11.6 87 0.0 35 12   98.33   -16 LegendNANA
09:00 -10.2 -12.0 87 0.0 34 11   98.46   -16 LegendNANA
10:00 -10.2 -12.6 82 0.0 33 6   98.51   -14 LegendNANA
11:00 -9.7 -12.1 83 0.0 30 8   98.59   -14 LegendNANA
12:00 -9.4 -11.8 83 0.0 29 7   98.53   -13 LegendNANA
13:00 -9.1 -11.4 83 0.0 31 5   98.55   -12 LegendNANA
14:00 -8.7 -11.4 81 0.0 26 6   98.64   -12 LegendNANA
15:00 -8.2 -10.8 82 0.0 0 1   98.61   -9 LegendNANA
16:00 -8.3 -10.7 83 0.0 17 2   98.62   -9 LegendNANA
17:00 -8.7 -10.6 86 0.0 15 4   98.57   -11 LegendNANA
18:00 -9.2 -10.9 87 0.0 17 5   98.63   -12 LegendNANA
19:00 -9.3 -10.9 88 0.0 17 7   98.61   -13 LegendNANA
20:00 -9.2 -10.6 90 0.0 18 6   98.65   -13 LegendNANA
21:00 -9.2 -10.6 90 0.0 15 7   98.62   -13 LegendNANA
22:00 -9.1 -10.5 89 0.0 15 7   98.67   -13 LegendNANA
23:00 -9.0 -10.5 89 0.0 17 5   98.72   -12 LegendNANA

Notes on Data Quality.

Legend

  • E = Estimated
  • M = Missing
  • NA = Not Available*
  • [empty] = Indicates an unobserved value
Date modified: